This is the latest recevied weather packets stored in our database for station/object KD6VEX-1. If no packets are shown the sender has not sent any weather packets the latest 10 day(s).
| Time | Temp. | Humidity | Pressure | Rain* | Wind** | Luminosity | Snow |
|---|---|---|---|---|---|---|---|
| 1777925593 | 21.67° C | 47% | 1014.6 hPa | 0 mm | - | - | - |
| 1777925293 | 22.22° C | 45% | 1014.6 hPa | 0 mm | - | - | - |
| 1777924992 | 21.67° C | 47% | 1014.6 hPa | 0 mm | - | - | - |
| 1777924692 | 21.11° C | 47% | 1014.5 hPa | 0 mm | - | - | - |
| 1777924392 | 21.67° C | 45% | 1014.6 hPa | 0 mm | - | - | - |
| 1777924092 | 21.67° C | 44% | 1014.6 hPa | 0 mm | - | - | - |
| 1777923792 | 22.22° C | 45% | 1014.7 hPa | 0 mm | - | - | - |
| 1777923493 | 22.22° C | 44% | 1014.8 hPa | 0 mm | - | - | - |
| 1777923192 | 21.67° C | 44% | 1014.7 hPa | 0 mm | - | - | - |
| 1777922895 | 21.11° C | 44% | 1014.7 hPa | 0 mm | - | - | - |
| 1777922592 | 20.56° C | 42% | 1014.9 hPa | 0 mm | - | - | - |
| 1777922292 | 21.11° C | 40% | 1014.9 hPa | 0 mm | - | - | - |
| 1777921992 | 21.67° C | 42% | 1014.9 hPa | 0 mm | - | - | - |
| 1777921692 | 20.56° C | 44% | 1014.9 hPa | 0 mm | - | - | - |
| 1777921202 | 20.56° C | 43% | 1015 hPa | 0 mm | - | - | - |
| 1777920902 | 20.56° C | 43% | 1014.9 hPa | 0 mm | - | - | - |
| 1777920601 | 20.56° C | 42% | 1014.9 hPa | 0 mm | - | - | - |
| 1777920302 | 20.56° C | 43% | 1015 hPa | 0 mm | - | - | - |
| 1777920002 | 20.56° C | 42% | 1015 hPa | 0 mm | - | - | - |
| 1777919702 | 21.11° C | 40% | 1015.1 hPa | 0 mm | - | - | - |
| 1777919401 | 21.11° C | 41% | 1015.1 hPa | 0 mm | - | - | - |
| 1777919102 | 20.56° C | 40% | 1015.2 hPa | 0 mm | - | - | - |
| 1777918801 | 20° C | 42% | 1015.3 hPa | 0 mm | - | - | - |
| 1777918501 | 20° C | 43% | 1015.3 hPa | 0 mm | - | - | - |
| 1777918201 | 20.56° C | 42% | 1015.4 hPa | 0 mm | - | - | - |
* Rain latest hour (hover to see other rain measurements)
** Current wind speed in m/s (hover to see current wind gust speed)